DW2633 Weather Reports


time (UTC)temp
F
wind
direction
speed
knots
gust
knots
rain 1hr
in
rain 24hr
in
rain mn
in
humidity
%
barometer
mb
20260905123517 65 342 7.0 0.0 0.00 0.00 0.00 82 1010.6
20260905123017 65 11 6.1 0.0 0.00 0.00 0.00 80 1010.6
20260905122517 65 355 5.2 0.0 0.00 0.00 0.00 80 1010.5
20260905122016 65 9 6.1 0.0 0.00 0.00 0.00 82 1010.5
20260905121516 65 45 6.1 0.0 0.00 0.00 0.00 82 1010.6
20260905121015 64 5 5.2 0.0 0.00 0.00 0.00 82 1010.5
20260905120514 64 21 4.3 0.0 0.00 0.00 0.00 81 1010.4
20260905120014 64 37 4.3 0.0 0.00 0.00 0.00 82 1010.2
20260905115515 64 355 4.3 0.0 0.00 0.00 0.00 81 1010.3
20260905115013 64 5 4.3 0.0 0.00 0.00 0.00 83 1010.2
20260905114512 64 44 4.3 0.0 0.00 0.00 0.00 82 1010.1
20260905114015 63 24 4.3 0.0 0.00 0.00 0.00 83 1009.9
20260905113512 63 21 3.5 0.0 0.00 0.00 0.00 83 1010.0
20260905113011 63 61 3.5 0.0 0.00 0.00 0.00 84 1009.9
20260905112512 62 36 2.6 0.0 0.00 0.00 0.00 83 1009.8
20260905112011 62 26 2.6 0.0 0.00 0.00 0.00 83 1009.8
20260905111512 62 88 2.6 0.0 0.00 0.00 0.00 84 1009.6
20260905111011 62 67 3.5 0.0 0.00 0.00 0.00 84 1009.6
20260905110516 63 59 3.5 0.0 0.00 0.00 0.00 84 1009.4
20260905110010 63 65 3.5 0.0 0.00 0.00 0.00 84 1009.4
20260905105510 62 58 3.5 0.0 0.00 0.00 0.00 83 1009.4
20260905105013 62 63 3.5 0.0 0.00 0.00 0.00 84 1009.4
20260905104510 62 60 3.5 0.0 0.00 0.00 0.00 85 1009.3
20260905104009 62 54 3.5 0.0 0.00 0.00 0.00 84 1009.4
20260905103510 62 74 3.5 0.0 0.00 0.00 0.00 84 1009.3
20260905103010 62 102 4.3 0.0 0.00 0.00 0.00 85 1009.3
20260905102509 62 27 5.2 0.0 0.00 0.00 0.00 85 1009.2
20260905102008 62 22 4.3 0.0 0.00 0.00 0.00 85 1009.1
20260905101516 62 55 3.5 0.0 0.00 0.00 0.00 85 1009.1
20260905101006 62 63 3.5 0.0 0.00 0.00 0.00 85 1009.0
20260905100506 62 57 3.5 0.0 0.00 0.00 0.00 85 1009.0
20260905100006 63 36 3.5 0.0 0.00 0.00 0.00 84 1008.9
20260905095504 63 59 3.5 0.0 0.00 0.00 0.00 84 1008.9
20260905095007 63 82 4.3 0.0 0.00 0.00 0.00 85 1009.0
20260905094504 63 32 4.3 0.0 0.00 0.00 0.00 86 1009.2
20260905094004 63 28 4.3 0.0 0.00 0.00 0.00 86 1009.1
20260905093503 63 28 5.2 0.0 0.00 0.00 0.00 86 1009.1
20260905093004 64 26 6.1 0.0 0.00 0.00 0.00 86 1008.9
20260905092503 64 5 7.0 0.0 0.00 0.00 0.00 86 1009.0
20260905092003 64 10 7.0 0.0 0.00 0.00 0.00 85 1008.9
20260905091503 64 18 7.0 0.0 0.00 0.00 0.00 86 1008.9
20260905091005 63 5 7.0 0.0 0.00 0.00 0.00 86 1008.9
20260905090500 63 26 6.1 0.0 0.00 0.00 0.00 86 1009.1
20260905090100 63 10 5.2 0.0 0.00 0.00 0.00 86 1009.1
20260905085602 63 19 5.2 0.0 0.00 0.00 0.00 86 1008.9
20260905085058 63 38 4.3 0.0 0.00 0.00 0.00 85 1009.0
20260905084600 63 57 4.3 0.0 0.00 0.00 0.00 85 1009.0
20260905084057 64 57 4.3 0.0 0.00 0.00 0.00 86 1009.1
20260905083555 64 50 4.3 0.0 0.00 0.00 0.00 85 1009.0
20260905083056 64 58 4.3 0.0 0.00 0.00 0.00 85 1009.0
20260905082555 64 38 4.3 0.0 0.00 0.00 0.00 86 1009.0
20260905082055 64 38 4.3 0.0 0.00 0.00 0.00 87 1009.1
20260905081554 64 46 3.5 0.0 0.00 0.00 0.00 85 1009.0
20260905081055 65 33 4.3 0.0 0.00 0.00 0.00 85 1009.1
20260905080555 65 48 4.3 0.0 0.00 0.00 0.00 84 1009.1
20260905075552 65 25 5.2 0.0 0.00 0.00 0.00 84 1009.1
20260905075051 65 17 6.1 0.0 0.00 0.00 0.00 84 1009.2
20260905074551 65 360 6.1 0.0 0.00 0.00 0.00 85 1009.2
20260905074051 65 21 6.1 0.0 0.00 0.00 0.00 85 1009.3
20260905073555 65 22 5.2 0.0 0.00 0.00 0.00 83 1009.3
20260905073050 65 5 4.3 0.0 0.00 0.00 0.00 83 1009.4
20260905072548 65 40 4.3 0.0 0.00 0.00 0.00 84 1009.2
20260905072049 64 48 3.5 0.0 0.00 0.00 0.00 84 1009.2
20260905071549 64 34 2.6 0.0 0.00 0.00 0.00 84 1009.3
20260905071049 65 59 1.7 0.0 0.00 0.00 0.00 84 1009.3
20260905070548 65 113 1.7 0.0 0.00 0.00 0.00 85 1009.3
20260905070051 65 87 1.7 0.0 0.00 0.00 0.00 85 1009.5
20260905065548 65 94 2.6 0.0 0.00 0.00 0.00 84 1009.4
20260905065048 65 116 3.5 0.0 0.00 0.00 0.00 84 1009.4
20260905064547 66 60 4.3 0.0 0.00 0.00 0.00 85 1009.6
20260905064048 66 10 4.3 0.0 0.00 0.00 0.00 85 1009.5
20260905063547 65 339 5.2 0.0 0.00 0.00 0.00 85 1009.4
20260905063055 65 336 5.2 0.0 0.00 0.00 0.00 86 1009.4
20260905062545 64 336 2.6 0.0 0.00 0.00 0.00 86 1009.4
20260905062044 64 336 0.9 0.0 0.00 0.00 0.00 86 1009.6
20260905061545 64 122 0.0 0.0 0.00 0.00 0.00 85 1009.7
20260905061044 64 122 0.9 0.0 0.00 0.00 0.00 84 1009.6
20260905060543 65 122 1.7 0.0 0.00 0.00 0.00 85 1009.5
20260905060042 65 119 2.6 0.0 0.00 0.00 0.00 85 1009.5
20260905055542 65 111 2.6 0.0 0.00 0.00 0.00 85 1009.6
20260905055040 65 101 2.6 0.0 0.00 0.00 0.00 84 1009.6
20260905054551 66 107 0.9 0.0 0.00 0.00 0.00 84 1009.7
20260905054039 66 79 0.9 0.0 0.00 0.00 0.00 82 1009.7
20260905053538 66 73 1.7 0.0 0.00 0.00 0.00 82 1009.7
20260905053036 67 94 2.6 0.0 0.00 0.00 0.00 81 1009.7
20260905052538 67 73 3.5 0.0 0.00 0.00 0.00 80 1009.8
20260905052035 67 80 4.3 0.0 0.00 0.00 0.00 81 1009.8
20260905051534 67 355 4.3 0.0 0.00 0.00 0.00 78 1009.9
20260905051033 67 346 4.3 0.0 0.00 0.00 0.00 79 1009.9
20260905050534 67 346 5.2 0.0 0.00 0.00 0.00 79 1010.0
20260905050033 68 342 4.3 0.0 0.00 0.00 0.00 78 1010.0
20260905045532 68 355 4.3 0.0 0.00 0.00 0.00 79 1010.0
20260905045033 68 15 4.3 0.0 0.00 0.00 0.00 79 1009.9
20260905044532 68 9 4.3 0.0 0.00 0.00 0.00 79 1010.0
20260905044031 68 360 4.3 0.0 0.00 0.00 0.00 79 1010.0
20260905043531 68 5 4.3 0.0 0.00 0.00 0.00 77 1010.1
20260905043030 67 16 3.5 0.0 0.00 0.00 0.00 79 1010.1
20260905042529 67 15 3.5 0.0 0.00 0.00 0.00 79 1010.0
20260905042029 67 39 2.6 0.0 0.00 0.00 0.00 78 1010.0
20260905041528 67 47 1.7 0.0 0.00 0.00 0.00 77 1010.0
20260905041027 68 63 1.7 0.0 0.00 0.00 0.00 77 1010.0
20260905040527 68 96 1.7 0.0 0.00 0.00 0.00 77 1010.1
20260905040032 68 70 2.6 0.0 0.00 0.00 0.00 78 1010.0
20260905035525 68 57 2.6 0.0 0.00 0.00 0.00 76 1010.0
20260905035026 68 58 2.6 0.0 0.00 0.00 0.00 75 1010.0
20260905034530 68 5 3.5 0.0 0.00 0.00 0.00 75 1010.0
20260905034026 68 36 3.5 0.0 0.00 0.00 0.00 76 1010.0
20260905033525 68 10 3.5 0.0 0.00 0.00 0.00 78 1010.0
20260905033030 68 47 3.5 0.0 0.00 0.00 0.00 76 1009.8
20260905032525 68 28 3.5 0.0 0.00 0.00 0.00 78 1009.9
20260905032025 68 30 4.3 0.0 0.00 0.00 0.00 78 1010.0
20260905031524 68 11 5.2 0.0 0.00 0.00 0.00 79 1010.1
20260905031024 68 335 4.3 0.0 0.00 0.00 0.00 77 1010.3
20260905030524 68 319 2.6 0.0 0.00 0.00 0.00 78 1010.1
20260905030024 68 333 1.7 0.0 0.00 0.00 0.00 79 1010.0
20260905025525 68 43 3.5 0.0 0.00 0.00 0.00 78 1009.9
20260905025024 68 62 4.3 0.0 0.00 0.00 0.00 79 1009.9
20260905024524 68 338 4.3 0.0 0.00 0.00 0.00 77 1010.0
20260905024024 68 335 4.3 0.0 0.00 0.00 0.00 79 1010.0
20260905023524 68 5 4.3 0.0 0.00 0.00 0.00 77 1010.0
20260905023023 68 330 3.5 0.0 0.00 0.00 0.00 77 1010.0
20260905022525 67 331 3.5 0.0 0.00 0.00 0.00 79 1010.0
20260905022023 67 321 4.3 0.0 0.00 0.00 0.00 79 1010.1
20260905021523 66 338 5.2 0.0 0.00 0.00 0.00 81 1010.1
20260905021023 65 288 3.5 0.0 0.00 0.00 0.00 81 1010.2
20260905020522 65 287 1.7 0.0 0.00 0.00 0.00 81 1010.2
20260905020026 65 299 1.7 0.0 0.00 0.00 0.00 81 1010.3
20260905015524 66 134 2.6 0.0 0.00 0.00 0.00 82 1010.3
20260905015023 66 134 1.7 0.0 0.00 0.00 0.00 81 1010.4
20260905014522 67 135 0.9 0.0 0.00 0.00 0.00 81 1010.4
20260905014022 67 134 0.9 0.0 0.00 0.00 0.00 81 1010.4
20260905013522 67 134 1.7 0.0 0.00 0.00 0.00 81 1010.3
20260905013021 68 134 2.6 0.0 0.00 0.00 0.00 80 1010.4
20260905012521 68 128 1.7 0.0 0.00 0.00 0.00 79 1010.4
20260905012021 69 113 1.7 0.0 0.00 0.00 0.00 78 1010.3
20260905011521 69 326 2.6 0.0 0.00 0.00 0.00 78 1010.2
20260905011021 69 324 3.5 0.0 0.00 0.00 0.00 77 1010.2
20260905010521 69 335 3.5 0.0 0.00 0.00 0.00 73 1010.2
20260905010022 69 332 4.3 0.0 0.00 0.00 0.00 73 1010.2
20260905005521 70 313 5.2 0.0 0.00 0.00 0.00 74 1010.2
20260905005019 70 341 5.2 0.0 0.00 0.00 0.00 72 1010.3
20260905004521 70 319 5.2 0.0 0.00 0.00 0.00 73 1010.2
20260905004020 70 328 6.1 0.0 0.00 0.00 0.00 72 1010.3
20260905003520 70 325 7.0 0.0 0.00 0.00 0.00 71 1010.2
20260905003020 70 324 7.8 0.0 0.00 0.00 0.00 71 1010.0
20260905002520 71 321 8.7 0.0 0.00 0.00 0.00 70 1009.9
20260905002020 71 312 8.7 0.0 0.00 0.00 0.00 72 1009.9
20260905001520 71 313 9.6 0.0 0.00 0.00 0.00 70 1009.9
20260905001023 71 312 9.6 0.0 0.00 0.00 0.00 72 1009.9
20260905000519 71 305 9.6 0.0 0.00 0.00 0.00 70 1009.8
20260905000019 71 302 9.6 0.0 0.00 0.00 0.00 71 1009.6
20260904235519 71 306 10.4 0.0 0.00 0.00 0.00 70 1009.6
20260904235021 72 299 9.6 0.0 0.00 0.00 0.00 70 1009.5
20260904234521 72 302 9.6 0.0 0.00 0.00 0.00 71 1009.7
20260904234019 72 303 7.8 0.0 0.00 0.00 0.00 70 1009.7
20260904233518 72 322 6.1 0.0 0.00 0.00 0.00 75 1009.5
20260904233018 72 317 6.1 0.0 0.00 0.00 0.00 73 1009.4
20260904232518 72 317 6.1 0.0 0.00 0.00 0.00 73 1009.4
20260904232017 72 327 7.0 0.0 0.00 0.00 0.00 73 1009.4
20260904231518 73 321 7.0 0.0 0.00 0.00 0.00 71 1009.4
20260904231017 73 319 7.8 0.0 0.00 0.00 0.00 70 1009.2
20260904230517 73 309 7.8 0.0 0.00 0.00 0.00 71 1009.3
20260904230029 73 317 6.1 0.0 0.00 0.00 0.00 73 1009.3
20260904225516 73 314 5.2 0.0 0.00 0.00 0.00 73 1009.3
20260904225017 73 315 5.2 0.0 0.00 0.00 0.00 72 1009.1
20260904224525 73 318 6.1 0.0 0.00 0.00 0.00 73 1009.2
20260904224017 73 325 6.1 0.0 0.00 0.00 0.00 72 1009.2
20260904223520 73 336 7.0 0.0 0.00 0.00 0.00 69 1009.2
20260904223016 73 337 7.0 0.0 0.00 0.00 0.00 69 1009.0
20260904222520 73 324 7.0 0.0 0.00 0.00 0.00 67 1008.9
20260904222016 73 324 6.1 0.0 0.00 0.00 0.00 67 1009.0
20260904221522 74 325 6.1 0.0 0.00 0.00 0.00 70 1008.9
20260904221016 74 319 6.1 0.0 0.00 0.00 0.00 69 1008.9
20260904220515 74 324 7.0 0.0 0.00 0.00 0.00 68 1008.8
20260904220015 74 310 7.8 0.0 0.00 0.00 0.00 68 1008.7
20260904215514 74 319 8.7 0.0 0.00 0.00 0.00 68 1008.8
20260904215015 75 329 7.8 0.0 0.00 0.00 0.00 64 1008.9
20260904214520 75 323 7.8 0.0 0.00 0.00 0.00 66 1008.8
20260904214015 75 305 8.7 0.0 0.00 0.00 0.00 66 1008.7
20260904213515 75 304 7.8 0.0 0.00 0.00 0.00 67 1008.6
20260904213017 75 300 7.8 0.0 0.00 0.00 0.00 68 1008.7
20260904212515 75 306 9.6 0.0 0.00 0.00 0.00 66 1008.6
20260904212014 76 291 10.4 0.0 0.00 0.00 0.00 70 1008.7
20260904211514 76 289 10.4 0.0 0.00 0.00 0.00 69 1008.6
20260904211013 76 289 12.2 0.0 0.00 0.00 0.00 67 1008.7
20260904210513 76 287 13.0 0.0 0.00 0.00 0.00 64 1008.9
20260904210012 76 285 12.2 0.0 0.00 0.00 0.00 66 1008.9
20260904205512 76 291 12.2 0.0 0.00 0.00 0.00 63 1008.9
20260904205010 76 302 13.9 0.0 0.00 0.00 0.00 61 1009.0
20260904204512 76 297 13.0 0.0 0.00 0.00 0.00 61 1009.0
20260904204011 76 286 12.2 0.0 0.00 0.00 0.00 65 1009.0
20260904203510 76 295 13.0 0.0 0.00 0.00 0.00 63 1009.1
20260904203010 76 297 13.9 0.0 0.00 0.00 0.00 62 1009.1
20260904202509 76 294 13.9 0.0 0.00 0.00 0.00 62 1009.0
20260904202008 76 302 12.2 0.0 0.00 0.00 0.00 61 1009.0
20260904201508 76 291 12.2 0.0 0.00 0.00 0.00 63 1009.0
20260904201009 76 300 11.3 0.0 0.00 0.00 0.00 63 1009.0
20260904200508 76 296 9.6 0.0 0.00 0.00 0.00 62 1008.9
20260904200010 76 319 8.7 0.0 0.00 0.00 0.00 62 1008.9
20260904195509 76 320 8.7 0.0 0.00 0.00 0.00 61 1009.0
20260904195008 77 312 7.8 0.0 0.00 0.00 0.00 62 1009.0
20260904194508 77 340 7.8 0.0 0.00 0.00 0.00 62 1009.0
20260904194008 76 324 9.6 0.0 0.00 0.00 0.00 61 1009.0
20260904193508 76 330 9.6 0.0 0.00 0.00 0.00 61 1008.9
20260904193014 76 334 9.6 0.0 0.00 0.00 0.00 63 1008.9
20260904192506 76 320 10.4 0.0 0.00 0.00 0.00 63 1008.9
20260904192005 76 314 10.4 0.0 0.00 0.00 0.00 62 1008.9
20260904191505 76 306 10.4 0.0 0.00 0.00 0.00 57 1009.2
20260904191004 76 299 8.7 0.0 0.00 0.00 0.00 63 1009.2
20260904190503 76 303 7.8 0.0 0.00 0.00 0.00 64 1009.2
20260904190002 76 312 8.7 0.0 0.00 0.00 0.00 63 1009.2
20260904185502 76 315 9.6 0.0 0.00 0.00 0.00 62 1009.2
20260904185002 76 309 9.6 0.0 0.00 0.00 0.00 64 1009.3
20260904184502 76 315 8.7 0.0 0.00 0.00 0.00 64 1009.4
20260904184002 76 319 7.8 0.0 0.00 0.00 0.00 62 1009.6
20260904183601 76 319 8.7 0.0 0.00 0.00 0.00 62 1009.6
20260904183114 76 324 8.7 0.0 0.00 0.00 0.00 65 1009.7
20260904182600 76 331 9.6 0.0 0.00 0.00 0.00 62 1009.8
20260904182100 77 327 8.7 0.0 0.00 0.00 0.00 64 1009.7
20260904181602 77 317 7.8 0.0 0.00 0.00 0.00 65 1009.8
20260904181059 77 331 7.8 0.0 0.00 0.00 0.00 62 1009.9
20260904180601 77 327 7.8 0.0 0.00 0.00 0.00 69 1009.9
20260904175556 76 296 7.8 0.0 0.00 0.00 0.00 67 1009.9
20260904175055 76 292 7.8 0.0 0.00 0.00 0.00 65 1009.9
20260904174555 76 299 7.8 0.0 0.00 0.00 0.00 68 1009.8
20260904174055 75 298 7.8 0.0 0.00 0.00 0.00 63 1009.9
20260904173553 75 294 7.8 0.0 0.00 0.00 0.00 64 1009.9
20260904173053 75 315 9.6 0.0 0.00 0.00 0.00 63 1010.0
20260904172553 75 326 9.6 0.0 0.00 0.00 0.00 67 1010.0
20260904172054 75 319 8.7 0.0 0.00 0.00 0.00 67 1010.0
20260904171554 75 322 8.7 0.0 0.00 0.00 0.00 65 1010.0
20260904171053 75 313 7.0 0.0 0.00 0.00 0.00 61 1010.0
20260904170552 75 314 5.2 0.0 0.00 0.00 0.00 61 1010.0
20260904170053 75 299 4.3 0.0 0.00 0.00 0.00 62 1010.0
20260904165550 75 294 3.5 0.0 0.00 0.00 0.00 63 1010.0
20260904165049 74 309 1.7 0.0 0.00 0.00 0.00 65 1009.9
20260904164548 74 275 1.7 0.0 0.00 0.00 0.00 69 1009.8
20260904164047 74 275 1.7 0.0 0.00 0.00 0.00 68 1009.9
20260904163546 74 9 1.7 0.0 0.00 0.00 0.00 68 1010.0
20260904163051 73 9 2.6 0.0 0.00 0.00 0.00 66 1010.0
20260904162546 73 355 3.5 0.0 0.00 0.00 0.00 67 1010.0
20260904162046 73 11 4.3 0.0 0.00 0.00 0.00 67 1010.1
20260904161546 73 342 4.3 0.0 0.00 0.00 0.00 67 1010.3
20260904161044 73 337 2.6 0.0 0.00 0.00 0.00 68 1010.4
20260904160543 73 331 0.9 0.0 0.00 0.00 0.00 70 1010.5
20260904160043 73 339 0.0 0.0 0.00 0.00 0.00 72 1010.5
20260904155542 73 338 1.7 0.0 0.00 0.00 0.00 73 1010.5
20260904155045 72 310 1.7 0.0 0.00 0.00 0.00 74 1010.5
20260904154540 72 309 2.6 0.0 0.00 0.00 0.00 74 1010.7
20260904154039 72 329 1.7 0.0 0.00 0.00 0.00 72 1010.8
20260904153537 71 202 0.0 0.0 0.00 0.00 0.00 78 1010.8
20260904153048 71 253 0.9 0.0 0.00 0.00 0.00 75 1010.8
20260904152535 71 253 0.9 0.0 0.00 0.00 0.00 80 1010.7
20260904152034 70 252 0.0 0.0 0.00 0.00 0.00 77 1010.8
20260904151534 70 252 1.7 0.0 0.00 0.00 0.00 77 1010.8
20260904151034 70 252 2.6 0.0 0.00 0.00 0.00 84 1011.0
20260904150535 70 264 1.7 0.0 0.00 0.00 0.00 82 1011.3
20260904150031 69 280 1.7 0.0 0.00 0.00 0.00 82 1011.3
20260904145531 69 279 1.7 0.0 0.00 0.00 0.00 83 1011.1
20260904145030 69 279 2.6 0.0 0.00 0.00 0.00 82 1011.1
20260904144531 68 279 2.6 0.0 0.00 0.00 0.00 83 1011.1
20260904144027 68 279 1.7 0.0 0.00 0.00 0.00 84 1011.2
20260904143526 68 265 1.7 0.0 0.00 0.00 0.00 85 1011.2
20260904143025 68 265 1.7 0.0 0.00 0.00 0.00 85 1011.2
20260904142524 67 264 1.7 0.0 0.00 0.00 0.00 86 1011.3
20260904142024 67 264 2.6 0.0 0.00 0.00 0.00 87 1011.2
20260904141523 67 262 2.6 0.0 0.00 0.00 0.00 87 1011.1
20260904141021 67 274 2.6 0.0 0.00 0.00 0.00 87 1011.1
20260904140520 66 319 1.7 0.0 0.00 0.00 0.00 89 1011.0
20260904140020 66 311 0.9 0.0 0.00 0.00 0.00 88 1011.0
20260904135519 66 311 0.9 0.0 0.00 0.00 0.00 87 1011.0
20260904135019 66 312 0.9 0.0 0.00 0.00 0.00 88 1011.0
20260904134522 65 312 0.9 0.0 0.00 0.00 0.00 88 1010.9
20260904134017 65 312 1.7 0.0 0.00 0.00 0.00 88 1010.9
20260904133516 65 312 2.6 0.0 0.00 0.00 0.00 88 1011.0
20260904133016 65 311 2.6 0.0 0.00 0.00 0.00 88 1011.1
20260904132517 65 314 1.7 0.0 0.00 0.00 0.00 89 1011.0
20260904132015 65 338 1.7 0.0 0.00 0.00 0.00 90 1010.8
20260904131515 65 338 1.7 0.0 0.00 0.00 0.00 91 1010.9
20260904131015 65 350 0.9 0.0 0.00 0.00 0.00 91 1010.9
20260904130515 65 351 0.9 0.0 0.00 0.00 0.00 91 1011.0
20260904130032 64 351 2.6 0.0 0.00 0.00 0.00 92 1011.1
20260904125513 64 351 2.6 0.0 0.00 0.00 0.00 94 1011.1
20260904125013 63 5 3.5 0.0 0.00 0.00 0.00 97 1011.0
20260904124510 63 360 2.6 0.0 0.00 0.00 0.00 97 1011.2
20260904124008 62 355 0.9 0.0 0.00 0.00 0.00 97 1011.2